Date Time,Air Temp,Sky Temp,Clarity,Light Level,Rain Sensor,Readings
2011-07-31 00:00:07,25.4,-2.4,27.8,0.0,2.2,111
2011-07-31 00:05:07,25.3,-2.2,27.5,0.0,2.3,112
2011-07-31 00:10:07,25.1,-1.9,27.0,0.0,2.2,111
2011-07-31 00:15:07,25.2,-1.6,26.8,0.0,2.1,112
2011-07-31 00:20:07,25.3,-1.5,26.7,0.0,2.2,111
2011-07-31 00:25:07,25.3,-1.7,27.0,0.0,2.3,112
2011-07-31 00:30:07,25.2,-1.5,26.8,0.0,2.3,112
2011-07-31 00:35:07,25.3,-1.3,26.6,0.0,2.3,111
2011-07-31 00:40:07,25.3,-1.7,27.1,0.0,2.2,112
2011-07-31 00:45:07,25.4,-1.5,26.9,0.0,2.2,111
2011-07-31 00:50:07,25.3,-1.6,26.9,0.0,2.3,112
2011-07-31 00:55:07,25.2,-1.7,26.9,0.0,2.3,111
2011-07-31 01:00:07,25.1,-1.4,26.5,0.0,2.3,112
2011-07-31 01:05:07,25.1,-1.1,26.3,0.0,2.3,111
2011-07-31 01:10:07,25.1,-0.7,25.8,0.0,2.3,112
2011-07-31 01:15:07,25.1,-0.2,25.3,0.0,2.3,112
2011-07-31 01:20:07,25.1,0.1,25.0,0.0,2.3,112
2011-07-31 01:25:07,25.1,0.4,24.7,0.0,2.3,111
2011-07-31 01:30:07,25.1,0.4,24.7,0.0,2.3,111
2011-07-31 01:35:07,25.1,1.1,24.0,0.0,2.3,111
2011-07-31 01:40:07,25.2,1.4,23.7,0.0,2.3,111
2011-07-31 01:45:07,25.2,1.8,23.3,0.0,2.3,111
2011-07-31 01:50:07,25.2,2.7,22.5,0.0,2.3,111
2011-07-31 01:55:07,25.2,3.3,21.9,0.0,2.3,111
2011-07-31 02:00:07,25.2,3.5,21.8,0.0,2.3,111
2011-07-31 02:05:07,25.3,3.6,21.7,0.0,2.3,112
2011-07-31 02:10:07,25.3,3.9,21.4,0.0,2.3,111
2011-07-31 02:15:07,25.3,4.3,21.0,0.0,2.3,112
2011-07-31 02:20:07,25.4,4.5,20.9,0.0,2.3,111
2011-07-31 02:25:07,25.4,4.9,20.5,0.0,2.3,112
2011-07-31 02:30:07,25.4,4.9,20.5,0.0,2.3,112
2011-07-31 02:35:07,25.0,5.1,19.9,0.0,2.3,112
2011-07-31 02:40:07,25.5,5.0,20.5,0.0,2.3,112
2011-07-31 02:45:07,25.5,5.1,20.4,0.0,2.3,112
2011-07-31 02:50:07,23.3,5.4,17.9,0.0,2.3,112
2011-07-31 02:55:07,21.3,5.3,16.0,0.0,2.2,111
2011-07-31 03:00:07,20.7,5.2,15.5,0.0,2.3,112
2011-07-31 03:05:07,20.4,5.3,15.1,0.0,2.4,112
2011-07-31 03:10:07,20.2,5.4,14.8,0.0,2.4,112
2011-07-31 03:15:07,20.4,5.6,14.8,0.0,2.3,112
2011-07-31 03:20:07,20.1,6.0,14.1,0.1,2.3,111
2011-07-31 03:25:07,20.0,6.1,14.0,0.1,2.3,111
2011-07-31 03:30:07,20.1,6.2,13.9,0.1,2.3,112
2011-07-31 03:35:07,20.0,6.3,13.7,0.1,2.3,111
2011-07-31 03:40:07,20.0,6.3,13.7,0.1,2.3,111
2011-07-31 03:45:07,20.0,6.0,14.0,0.1,2.3,112
2011-07-31 03:50:07,19.9,5.8,14.2,0.1,2.3,112
2011-07-31 03:55:07,19.9,5.6,14.3,0.1,2.2,111
2011-07-31 04:00:07,19.9,5.0,14.8,0.1,2.2,112
2011-07-31 04:05:07,19.9,4.4,15.4,0.1,2.2,112
2011-07-31 04:10:07,19.8,3.5,16.4,0.2,2.3,111
2011-07-31 04:15:07,19.8,2.6,17.2,0.2,2.3,111
2011-07-31 04:20:07,19.7,2.8,16.9,0.4,2.3,112
2011-07-31 04:25:07,19.7,2.9,16.8,0.6,2.3,111
2011-07-31 04:30:07,19.7,1.9,17.8,0.8,2.3,110
2011-07-31 04:35:07,19.6,0.8,18.9,1.3,2.3,112
2011-07-31 04:40:07,19.9,0.0,19.9,2.0,2.3,111
2011-07-31 04:45:07,22.4,0.9,21.5,3.3,2.3,111
2011-07-31 04:50:07,23.9,1.8,22.0,5.5,2.3,111
2011-07-31 04:55:07,24.3,2.2,22.1,8.6,2.3,111
2011-07-31 05:00:07,24.5,2.3,22.2,12.8,2.3,112
2011-07-31 05:05:07,24.8,2.2,22.5,17.4,2.3,111
2011-07-31 05:10:07,24.9,2.4,22.5,21.8,2.3,111
2011-07-31 05:15:07,25.0,3.0,22.0,25.3,2.3,111
2011-07-31 05:20:07,25.1,3.4,21.6,27.7,2.3,111
2011-07-31 05:25:07,25.1,4.1,21.1,29.2,2.3,112
2011-07-31 05:30:07,24.5,5.3,19.1,30.3,2.3,111
2011-07-31 05:35:07,21.8,6.3,15.5,30.9,2.2,112
2011-07-31 05:40:07,20.8,6.7,14.1,31.0,2.3,111
2011-07-31 05:45:07,20.5,7.2,13.3,31.3,2.4,112
2011-07-31 05:50:07,20.4,7.6,12.8,31.5,2.3,111
2011-07-31 05:55:07,20.4,7.8,12.6,31.7,2.3,112
2011-07-31 06:00:07,20.5,7.8,12.7,31.8,2.3,111
2011-07-31 06:05:07,20.6,8.0,12.5,32.0,2.3,112
2011-07-31 06:10:07,20.7,8.1,12.6,32.0,2.4,111
2011-07-31 06:15:07,20.8,8.2,12.6,32.1,2.3,112
2011-07-31 06:20:07,21.0,8.3,12.7,32.1,2.3,112
2011-07-31 06:25:07,21.0,8.2,12.8,32.1,2.3,111
2011-07-31 06:30:07,21.1,8.1,13.0,32.1,2.3,112
2011-07-31 06:35:07,21.0,8.0,13.0,32.1,2.3,111
2011-07-31 06:40:07,21.0,8.1,12.9,32.1,2.3,112
2011-07-31 06:45:07,21.0,7.7,13.3,32.2,2.3,111
2011-07-31 06:50:07,21.0,7.6,13.4,32.3,2.3,111
2011-07-31 06:55:07,21.0,7.3,13.8,32.3,2.3,112
2011-07-31 07:00:07,21.1,7.4,13.6,32.3,2.3,111
2011-07-31 07:05:07,21.2,7.9,13.3,32.3,2.3,112
2011-07-31 07:10:07,21.3,8.0,13.3,32.3,2.3,111
2011-07-31 07:15:07,21.5,7.9,13.6,32.4,2.1,112
2011-07-31 07:20:07,21.5,8.1,13.4,32.4,2.1,111
2011-07-31 07:25:07,21.7,8.0,13.7,32.4,2.2,112
2011-07-31 07:30:07,21.8,7.9,13.8,32.4,2.3,111
2011-07-31 07:35:07,21.9,7.9,13.9,32.4,2.3,112
2011-07-31 07:40:07,22.0,8.0,14.0,32.4,2.3,111
2011-07-31 07:45:07,22.1,7.8,14.4,32.4,2.3,112
2011-07-31 07:50:07,22.4,6.9,15.5,32.4,2.3,112
2011-07-31 07:55:07,22.5,6.9,15.6,32.5,2.3,111
2011-07-31 08:00:07,22.7,6.5,16.2,32.5,2.3,112
2011-07-31 08:05:07,22.9,6.2,16.6,32.5,2.3,111
2011-07-31 08:10:08,22.7,6.0,16.7,32.5,2.3,112
2011-07-31 08:15:08,23.2,4.9,18.2,32.5,2.3,111
2011-07-31 08:20:08,23.0,4.5,18.5,32.5,2.2,112
2011-07-31 08:25:08,22.9,4.6,18.3,32.5,2.3,111
2011-07-31 08:30:08,23.1,4.5,18.6,32.5,2.3,112
2011-07-31 08:35:08,24.9,3.2,21.6,32.5,2.3,111
2011-07-31 08:40:08,27.2,3.0,24.1,32.5,2.3,112
2011-07-31 08:45:08,27.9,4.4,23.4,32.5,2.3,112
2011-07-31 08:50:08,28.4,4.4,24.1,32.5,2.3,111
2011-07-31 08:55:08,28.9,5.0,23.9,32.5,2.3,112
2011-07-31 09:00:08,29.2,4.5,24.8,32.5,2.3,111
2011-07-31 09:05:08,29.3,4.1,25.2,32.5,2.3,112
2011-07-31 09:10:08,29.2,3.5,25.7,32.5,2.3,111
2011-07-31 09:15:08,29.4,3.1,26.3,32.5,2.3,111
2011-07-31 09:20:08,29.5,3.4,26.0,32.5,2.3,111
2011-07-31 09:25:08,29.5,4.0,25.5,32.5,2.3,112
2011-07-31 09:30:08,29.6,4.7,24.9,32.5,2.3,111
2011-07-31 09:35:08,29.8,5.1,24.7,32.5,2.3,112
2011-07-31 09:40:08,30.4,4.9,25.5,32.5,2.3,111
2011-07-31 09:45:08,30.6,2.2,28.4,32.5,2.3,111
2011-07-31 09:50:08,30.3,0.9,29.4,32.5,2.3,111
2011-07-31 09:55:08,29.8,0.3,29.5,32.5,2.3,112
2011-07-31 10:00:08,29.7,0.7,29.1,32.5,2.3,111
2011-07-31 10:05:08,30.2,1.5,28.7,32.5,2.3,111
2011-07-31 10:10:08,30.6,1.1,29.5,32.5,2.3,111
2011-07-31 10:15:08,30.6,0.4,30.2,32.5,2.3,111
2011-07-31 10:20:08,30.6,1.4,29.2,32.6,2.3,111
2011-07-31 10:25:08,30.8,1.8,28.9,32.6,2.3,111
2011-07-31 10:30:08,30.9,3.8,27.1,32.6,2.3,111
2011-07-31 10:35:08,31.0,4.8,26.1,32.6,2.3,112
2011-07-31 10:40:08,30.5,3.4,27.1,32.6,2.3,111
2011-07-31 10:45:08,30.4,2.7,27.7,32.6,2.3,111
2011-07-31 10:50:08,30.3,3.5,26.8,32.6,2.3,111
2011-07-31 10:55:08,31.0,4.5,26.5,32.6,2.3,112
2011-07-31 11:00:08,31.7,4.3,27.5,32.6,1.6,111
2011-07-31 11:05:08,32.2,4.8,27.4,32.6,1.3,112
2011-07-31 11:10:08,32.5,4.2,28.3,32.6,1.2,112
2011-07-31 11:15:08,32.5,4.1,28.5,32.6,1.1,111
2011-07-31 11:20:08,32.6,4.6,28.0,32.6,1.1,111
2011-07-31 11:25:08,32.9,5.2,27.7,32.6,1.2,112
2011-07-31 11:30:08,33.1,7.2,25.9,32.6,1.3,111
2011-07-31 11:35:08,33.3,7.1,26.2,32.6,1.5,112
2011-07-31 11:40:08,32.9,6.7,26.2,32.6,1.4,111
2011-07-31 11:45:08,32.6,6.0,26.6,32.6,1.3,112
2011-07-31 11:50:08,32.8,6.0,26.7,32.6,1.3,111
2011-07-31 11:55:08,32.8,5.8,27.0,32.6,1.4,112
2011-07-31 12:00:08,32.8,4.3,28.5,32.6,1.4,111
2011-07-31 12:05:08,32.5,4.5,28.0,32.6,1.3,112
2011-07-31 12:10:08,32.6,4.2,28.4,32.6,1.3,112
2011-07-31 12:15:08,33.0,6.0,27.0,32.6,1.3,111
2011-07-31 12:20:08,33.8,5.0,28.8,32.6,1.6,112
2011-07-31 12:25:08,33.7,4.3,29.4,32.6,1.7,111
2011-07-31 12:30:08,33.4,5.2,28.2,32.6,1.6,112
2011-07-31 12:35:08,33.2,5.5,27.6,32.6,1.6,111
2011-07-31 12:40:08,32.9,5.0,28.0,32.6,1.5,112
2011-07-31 12:45:08,32.6,4.1,28.6,32.6,1.4,111
2011-07-31 12:50:08,32.6,5.7,26.9,32.6,1.3,112
2011-07-31 12:55:08,33.2,5.1,28.1,32.6,1.5,112
2011-07-31 13:00:08,33.2,4.2,29.0,32.6,1.6,111
2011-07-31 13:05:08,33.0,4.1,28.9,32.6,1.5,112
2011-07-31 13:10:08,33.4,5.7,27.6,32.6,1.6,111
2011-07-31 13:15:08,34.1,6.1,28.1,32.6,1.8,112
2011-07-31 13:20:08,34.6,4.5,30.1,32.6,2.0,111
2011-07-31 13:25:08,34.6,5.2,29.4,32.6,2.0,112
2011-07-31 13:30:08,34.9,5.1,29.8,32.6,2.0,111
2011-07-31 13:35:08,35.3,6.4,28.9,32.6,2.3,112
2011-07-31 13:40:08,35.9,5.1,30.8,32.6,2.4,111
2011-07-31 13:45:08,35.5,6.0,29.6,32.6,2.4,111
2011-07-31 13:50:08,35.8,5.9,29.9,32.6,2.4,112
2011-07-31 13:55:08,35.8,4.9,30.9,32.6,2.4,112
2011-07-31 14:00:08,35.3,5.4,29.9,32.6,2.4,111
2011-07-31 14:05:08,35.2,5.0,30.2,32.6,2.4,111
2011-07-31 14:10:08,35.2,7.1,28.0,32.6,2.4,112
2011-07-31 14:15:08,35.5,5.5,30.0,32.6,2.3,111
2011-07-31 14:20:08,35.2,6.2,29.0,32.6,2.4,112
2011-07-31 14:25:08,34.8,7.3,27.5,32.6,2.3,111
2011-07-31 14:30:08,34.7,5.5,29.3,32.6,2.3,112
2011-07-31 14:35:08,34.8,7.7,27.1,32.6,2.4,111
2011-07-31 14:40:08,35.9,7.7,28.2,32.6,2.5,111
2011-07-31 14:45:08,36.3,5.6,30.6,32.6,2.6,112
2011-07-31 14:50:08,35.9,5.7,30.1,32.6,2.5,111
2011-07-31 14:55:08,35.4,5.8,29.6,32.6,2.4,111
2011-07-31 15:00:08,35.3,6.5,28.8,32.6,2.3,112
2011-07-31 15:05:08,35.8,6.5,29.3,32.6,2.5,111
2011-07-31 15:10:08,36.2,6.3,30.0,32.6,2.7,112
2011-07-31 15:15:08,36.0,7.2,28.9,32.6,2.7,111
2011-07-31 15:20:08,36.1,6.9,29.3,32.6,2.7,112
2011-07-31 15:25:08,36.2,7.2,29.0,32.6,2.7,111
2011-07-31 15:30:08,36.1,6.1,30.0,32.6,2.7,112
2011-07-31 15:35:08,36.0,7.3,28.7,32.6,2.7,112
2011-07-31 15:40:08,36.2,6.6,29.6,32.6,2.7,111
2011-07-31 15:45:08,36.3,7.2,29.1,32.6,2.7,111
2011-07-31 15:50:08,36.8,8.0,28.8,32.6,2.6,112
2011-07-31 15:55:08,37.1,6.5,30.6,32.6,2.4,111
2011-07-31 16:00:08,36.7,5.8,30.9,32.6,2.4,111
2011-07-31 16:05:08,36.3,6.3,30.0,32.6,2.8,111
2011-07-31 16:10:08,36.1,5.2,30.9,32.6,2.7,112
2011-07-31 16:15:08,35.6,5.6,30.1,32.6,2.7,111
2011-07-31 16:20:08,35.5,5.3,30.3,32.6,2.7,112
2011-07-31 16:25:08,35.3,6.1,29.2,32.6,2.6,111
2011-07-31 16:30:08,35.6,5.7,29.8,32.6,2.7,112
2011-07-31 16:35:08,35.6,5.2,30.4,32.6,2.7,112
2011-07-31 16:40:08,35.6,5.9,29.7,32.6,2.7,111
2011-07-31 16:45:08,35.9,5.5,30.4,32.6,2.8,112
2011-07-31 16:50:08,35.8,4.8,31.0,32.6,2.7,111
2011-07-31 16:55:08,35.4,5.0,30.4,32.6,2.6,112
2011-07-31 17:00:08,36.0,7.6,28.4,32.6,2.7,111
2011-07-31 17:05:08,37.1,6.6,30.4,32.6,2.4,112
2011-07-31 17:10:08,37.2,5.8,31.4,32.6,2.4,111
2011-07-31 17:15:08,37.2,7.0,30.2,32.6,2.4,112
2011-07-31 17:20:08,37.8,6.8,31.0,32.6,2.4,111
2011-07-31 17:25:08,37.5,5.0,32.5,32.6,2.4,111
2011-07-31 17:30:08,36.3,4.5,31.8,32.6,2.4,112
2011-07-31 17:35:08,35.8,6.4,29.4,32.6,2.8,112
2011-07-31 17:40:08,36.2,6.1,30.2,32.6,2.5,111
2011-07-31 17:45:08,36.4,6.2,30.3,32.6,2.4,112
2011-07-31 17:50:08,36.0,4.7,31.3,32.6,2.5,112
2011-07-31 17:55:08,35.5,4.7,30.8,32.6,2.7,111
2011-07-31 18:00:08,35.2,5.2,30.0,32.6,2.7,112
2011-07-31 18:05:08,35.6,5.7,29.8,32.6,2.7,112
2011-07-31 18:10:08,35.8,4.1,31.7,32.6,2.7,111
2011-07-31 18:15:08,35.0,3.7,31.3,32.6,2.6,111
2011-07-31 18:20:08,34.4,3.6,30.8,32.6,2.4,112
2011-07-31 18:25:08,34.1,3.9,30.2,32.6,2.3,111
2011-07-31 18:30:08,33.8,1.8,32.0,32.5,2.3,111
2011-07-31 18:35:08,32.7,1.8,30.9,32.5,2.0,111
2011-07-31 18:40:08,32.0,2.6,29.4,32.5,1.7,111
2011-07-31 18:45:08,31.7,3.3,28.4,32.6,1.6,111
2011-07-31 18:50:08,31.7,2.0,29.7,32.5,1.5,111
2011-07-31 18:55:08,31.3,1.6,29.7,32.4,1.3,111
2011-07-31 19:00:08,30.7,2.3,28.5,32.4,1.2,111
2011-07-31 19:05:08,30.4,3.8,26.6,32.5,1.5,111
2011-07-31 19:10:08,30.2,5.5,24.6,32.5,1.7,112
2011-07-31 19:15:08,30.0,5.7,24.3,32.4,1.8,111
2011-07-31 19:20:08,29.9,5.0,24.9,32.4,2.1,112
2011-07-31 19:25:08,29.8,3.6,26.2,32.4,2.3,111
2011-07-31 19:30:08,29.6,3.7,26.0,32.4,2.3,112
2011-07-31 19:35:08,29.5,4.6,25.0,32.4,2.3,112
2011-07-31 19:40:08,29.6,6.2,23.4,32.4,2.3,112
2011-07-31 19:45:08,29.6,7.8,21.8,32.4,2.3,111
2011-07-31 19:50:08,29.4,9.3,20.1,32.4,2.3,112
2011-07-31 19:55:08,26.9,9.0,17.9,32.4,2.3,111
2011-07-31 20:00:08,25.6,9.1,16.5,32.3,2.3,111
2011-07-31 20:05:08,24.9,9.1,15.8,32.2,2.3,112
2011-07-31 20:10:08,24.4,8.4,16.0,32.1,2.3,111
2011-07-31 20:15:08,24.0,8.0,16.1,32.0,2.3,112
2011-07-31 20:20:08,23.7,8.4,15.4,32.0,2.3,111
2011-07-31 20:25:08,23.5,9.1,14.4,31.9,2.3,111
2011-07-31 20:30:08,23.3,9.6,13.8,31.7,2.3,112
2011-07-31 20:35:08,23.2,9.9,13.3,31.5,2.3,111
2011-07-31 20:40:08,23.2,10.1,13.1,31.2,2.3,112
2011-07-31 20:45:08,23.1,9.9,13.2,30.8,2.4,112
2011-07-31 20:50:08,22.9,10.0,12.9,30.2,2.5,111
2011-07-31 20:55:08,22.9,10.1,12.8,29.4,2.4,112
2011-07-31 21:00:08,22.8,10.2,12.6,28.0,2.3,111
2011-07-31 21:05:08,22.7,10.1,12.6,26.0,2.3,112
2011-07-31 21:10:08,22.7,10.1,12.5,22.9,2.3,112
2011-07-31 21:15:08,22.6,10.0,12.6,19.1,2.3,111
2011-07-31 21:20:08,22.5,9.7,12.8,15.0,2.2,112
2011-07-31 21:25:08,22.5,9.7,12.8,10.8,2.0,112
2011-07-31 21:30:08,22.4,9.4,13.0,7.2,2.0,111
2011-07-31 21:35:08,22.4,9.3,13.1,4.5,2.0,111
2011-07-31 21:40:08,22.3,9.3,13.0,2.7,2.1,112
2011-07-31 21:45:08,22.3,9.3,13.0,1.6,2.2,111
2011-07-31 21:50:08,22.3,9.1,13.2,1.0,2.3,112
2011-07-31 21:55:08,22.2,8.8,13.4,0.6,2.3,111
2011-07-31 22:00:08,22.2,8.6,13.5,0.4,2.3,111
2011-07-31 22:05:08,22.1,8.4,13.7,0.2,2.3,111
2011-07-31 22:10:08,22.1,8.1,14.0,0.2,2.3,111
2011-07-31 22:15:08,22.0,8.0,14.1,0.1,2.3,112
2011-07-31 22:20:08,21.6,8.1,13.4,0.1,2.3,112
2011-07-31 22:25:08,21.9,8.2,13.7,0.1,2.3,111
2011-07-31 22:30:08,21.9,7.9,13.9,0.1,2.3,111
2011-07-31 22:35:08,21.8,7.4,14.5,0.0,2.3,111
2011-07-31 22:40:08,21.8,6.8,15.0,0.0,2.3,111
2011-07-31 22:45:08,21.7,8.5,13.3,0.0,2.3,112
2011-07-31 22:50:08,21.7,9.9,11.8,0.0,2.3,111
2011-07-31 22:55:09,21.7,11.0,10.7,0.1,2.3,111
2011-07-31 23:00:09,21.7,11.4,10.3,0.1,2.3,111
2011-07-31 23:05:09,21.8,11.2,10.6,0.1,2.3,111
2011-07-31 23:10:09,21.8,10.6,11.2,0.1,2.3,112
2011-07-31 23:15:09,21.8,10.3,11.5,0.1,2.3,112
2011-07-31 23:20:09,21.8,10.5,11.4,0.1,2.3,111
2011-07-31 23:25:09,21.9,10.4,11.4,0.1,2.3,112
2011-07-31 23:30:09,21.9,11.3,10.6,0.1,2.3,111
2011-07-31 23:35:09,21.9,11.9,10.0,0.1,2.3,112
2011-07-31 23:40:09,22.0,12.1,9.8,0.1,2.3,111
2011-07-31 23:45:09,22.0,12.4,9.6,0.1,2.3,111
2011-07-31 23:50:09,22.1,12.4,9.7,0.1,2.3,112
2011-07-31 23:55:09,22.1,12.4,9.7,0.1,2.3,111
